Starlink 31220

operational
NORAD ID: 59039 Int'l Des: 2024-038 Owner: SPXS Country: US Constellation: starlink
LEOCIRCULAR

Starlink 31220について

説明を読み込み中...

リアルタイム位置

3D地球を読み込み中...

次回通過

高度履歴

Altitude vs Time

uPlot chart will show altitude changes over time

軌道要素

1 59039U 24038S 25308.90016720 -.00001135 00000-0 -31746-4 0 9993
2 59039 43.0031 11.7246 0000580 33.8695 326.2194 15.27568923 95679
Epoch: Nov 4, 2025 • Age: 12 hours

現在のステータス

高度 490.5 km
速度 7.62 km/s
衛星直下点 -28.57°S, 138.95°E
打ち上げ日 Feb 25, 2024
運用期間 1.6 years
タイプ internet

技術仕様

分類 Payload
質量 730.00 kg
乾燥質量 700.00 kg
総質量 730.00 kg
長さ 0.30 m
直径 4.10 m
スパン 29.00 m
形状 Box + pan
製造者 SPXS
バスタイプ Starlink V2M
フェーズステータス In Orbit
所有者/国 SPXS/US

大規模コンステレーション

Loading constellations...